Time,TemperatureF,DewpointF,PressureIn,WindDirection,WindDirectionDegrees,WindSpeedMPH,WindSpeedGustMPH,Humidity,HourlyPrecipIn,Conditions,Clouds,dailyrainin,SoftwareType,DateUTC
2013-11-09 00:04:00,77.4,67.2,18.01,North,0,0.0,0.0,71,0.00,,SHRA,0.00,VWS V14.01,2013-11-09 04:04:00,
2013-11-09 00:10:00,77.4,67.2,18.01,North,0,0.0,0.0,71,0.00,,SHRA,0.00,VWS V14.01,2013-11-09 04:10:00,
2013-11-09 00:15:00,77.4,67.2,18.01,North,0,0.0,0.0,71,0.00,,SHRA,0.00,VWS V14.01,2013-11-09 04:15:00,
2013-11-09 00:20:00,77.4,67.2,18.01,North,0,0.0,0.0,71,0.00,,SHRA,0.00,VWS V14.01,2013-11-09 04:20:00,
2013-11-09 00:25:00,77.2,67.1,18.01,North,0,0.0,0.0,71,0.00,,SHRA,0.00,VWS V14.01,2013-11-09 04:25:00,
2013-11-09 00:30:00,77.0,66.9,18.01,North,0,0.0,0.0,71,0.00,,SHRA,0.00,VWS V14.01,2013-11-09 04:30:00,
2013-11-09 00:35:00,77.0,66.9,18.01,North,0,0.0,0.0,71,0.00,,SHRA,0.00,VWS V14.01,2013-11-09 04:35:00,
2013-11-09 00:40:00,76.8,66.7,18.01,North,0,0.0,0.0,71,0.00,,SHRA,0.00,VWS V14.01,2013-11-09 04:40:00,
2013-11-09 00:45:00,76.6,66.9,18.01,North,0,0.0,0.0,72,0.00,,SHRA,0.00,VWS V14.01,2013-11-09 04:45:00,
2013-11-09 00:50:00,76.6,66.9,18.01,North,0,0.0,0.0,72,0.00,,SHRA,0.00,VWS V14.01,2013-11-09 04:50:00,
2013-11-09 00:55:00,76.5,67.2,18.01,North,0,0.0,0.0,73,0.00,,SHRA,0.00,VWS V14.01,2013-11-09 04:55:00,
2013-11-09 01:00:00,76.5,67.2,18.01,North,0,0.0,0.0,73,0.00,,SHRA,0.00,VWS V14.01,2013-11-09 05:00:00,
2013-11-09 01:01:00,76.5,67.2,18.01,North,0,0.0,0.0,73,0.00,,SHRA,0.00,VWS V14.01,2013-11-09 05:01:00,
2013-11-09 01:06:00,76.5,67.2,18.01,North,0,0.0,0.0,73,0.00,,SHRA,0.00,VWS V14.01,2013-11-09 05:06:00,
2013-11-09 01:11:00,76.3,67.0,18.01,North,0,0.0,0.0,73,0.00,,SHRA,0.00,VWS V14.01,2013-11-09 05:11:00,
2013-11-09 01:16:00,76.3,67.0,18.01,North,0,0.0,0.0,73,0.00,,SHRA,0.00,VWS V14.01,2013-11-09 05:16:00,
2013-11-09 01:21:00,76.1,67.2,18.01,North,0,0.0,0.0,74,0.00,,SHRA,0.00,VWS V14.01,2013-11-09 05:21:00,
2013-11-09 01:26:00,76.1,67.2,18.01,North,0,0.0,0.0,74,0.00,,SHRA,0.00,VWS V14.01,2013-11-09 05:26:00,
2013-11-09 01:31:00,75.9,67.0,18.01,North,0,0.0,0.0,74,0.00,,SHRA,0.00,VWS V14.01,2013-11-09 05:31:00,
2013-11-09 01:36:00,75.9,67.4,18.01,North,0,0.0,0.0,75,0.00,,SHRA,0.00,VWS V14.01,2013-11-09 05:36:00,
2013-11-09 01:41:00,75.7,67.3,18.01,North,0,0.0,0.0,75,0.00,,SHRA,0.00,VWS V14.01,2013-11-09 05:41:00,
2013-11-09 01:46:00,75.9,67.8,18.01,North,0,0.0,0.0,76,0.00,,SHRA,0.00,VWS V14.01,2013-11-09 05:46:00,
2013-11-09 01:51:00,75.7,67.6,18.01,North,0,0.0,0.0,76,0.00,,SHRA,0.00,VWS V14.01,2013-11-09 05:51:00,
2013-11-09 01:56:00,75.9,67.8,18.01,North,0,0.0,0.0,76,0.00,,SHRA,0.00,VWS V14.01,2013-11-09 05:56:00,
2013-11-09 02:01:00,75.7,67.6,18.01,North,0,0.0,0.0,76,0.00,,SHRA,0.00,VWS V14.01,2013-11-09 06:01:00,
2013-11-09 02:06:00,75.9,68.2,18.01,North,0,0.0,0.0,77,0.00,,SHRA,0.00,VWS V14.01,2013-11-09 06:06:00,
2013-11-09 02:11:00,75.9,68.2,18.01,North,0,0.0,0.0,77,0.00,,SHRA,0.00,VWS V14.01,2013-11-09 06:11:00,
2013-11-09 02:16:00,75.9,68.2,18.01,North,0,0.0,0.0,77,0.00,,SHRA,0.00,VWS V14.01,2013-11-09 06:16:00,
2013-11-09 02:21:00,75.9,68.2,18.01,North,0,0.0,0.0,77,0.00,,SHRA,0.00,VWS V14.01,2013-11-09 06:21:00,
2013-11-09 02:26:00,75.7,67.6,18.01,North,0,0.0,0.0,76,0.00,,SHRA,0.00,VWS V14.01,2013-11-09 06:26:00,
2013-11-09 02:31:00,75.4,67.3,18.01,North,0,0.0,0.0,76,0.00,,SHRA,0.00,VWS V14.01,2013-11-09 06:31:00,
2013-11-09 02:36:00,75.4,67.3,18.01,North,0,0.0,0.0,76,0.00,,SHRA,0.00,VWS V14.01,2013-11-09 06:36:00,
2013-11-09 02:41:00,75.4,67.7,18.01,North,0,0.0,0.0,77,0.00,,SHRA,0.00,VWS V14.01,2013-11-09 06:41:00,
2013-11-09 02:46:00,75.2,67.5,18.01,North,0,0.0,0.0,77,0.00,,SHRA,0.00,VWS V14.01,2013-11-09 06:46:00,
2013-11-09 02:51:00,75.4,67.7,18.01,North,0,0.0,0.0,77,0.00,,SHRA,0.00,VWS V14.01,2013-11-09 06:51:00,
2013-11-09 02:56:00,75.2,67.5,18.01,North,0,0.0,0.0,77,0.00,,SHRA,0.00,VWS V14.01,2013-11-09 06:56:00,
2013-11-09 03:01:00,75.4,68.1,18.01,North,0,0.0,0.0,78,0.00,,SHRA,0.00,VWS V14.01,2013-11-09 07:01:00,
2013-11-09 03:06:00,75.0,67.7,18.01,North,0,0.0,0.0,78,0.00,,SHRA,0.00,VWS V14.01,2013-11-09 07:06:00,
2013-11-09 03:11:00,75.0,67.7,18.01,North,0,0.0,0.0,78,0.00,,SHRA,0.00,VWS V14.01,2013-11-09 07:11:00,
2013-11-09 03:16:00,75.2,67.9,18.01,North,0,0.0,0.0,78,0.00,,SHRA,0.00,VWS V14.01,2013-11-09 07:16:00,
2013-11-09 03:21:00,75.0,67.7,18.01,North,0,0.0,0.0,78,0.00,,SHRA,0.00,VWS V14.01,2013-11-09 07:21:00,
2013-11-09 03:26:00,75.0,67.7,18.01,North,0,0.0,0.0,78,0.00,,SHRA,0.00,VWS V14.01,2013-11-09 07:26:00,
2013-11-09 03:31:00,75.0,68.1,18.01,North,0,0.0,0.0,79,0.00,,SHRA,0.00,VWS V14.01,2013-11-09 07:31:00,
2013-11-09 03:37:00,75.2,67.9,18.01,North,0,0.0,0.0,78,0.00,,SHRA,0.00,VWS V14.01,2013-11-09 07:37:00,
2013-11-09 03:42:00,74.8,67.5,18.01,North,0,0.0,0.0,78,0.00,,SHRA,0.00,VWS V14.01,2013-11-09 07:42:00,
2013-11-09 03:47:00,74.8,67.9,18.01,North,0,0.0,0.0,79,0.00,,SHRA,0.00,VWS V14.01,2013-11-09 07:47:00,
2013-11-09 03:52:00,74.7,67.7,18.01,North,0,0.0,0.0,79,0.00,,SHRA,0.00,VWS V14.01,2013-11-09 07:52:00,
2013-11-09 03:57:00,74.7,67.7,18.01,North,0,0.0,0.0,79,0.00,,SHRA,0.00,VWS V14.01,2013-11-09 07:57:00,
2013-11-09 04:02:00,74.7,67.7,18.01,North,0,0.0,0.0,79,0.00,,SHRA,0.00,VWS V14.01,2013-11-09 08:02:00,
2013-11-09 04:07:00,74.7,67.7,18.01,North,0,0.0,0.0,79,0.00,,SHRA,0.00,VWS V14.01,2013-11-09 08:07:00,
2013-11-09 04:12:00,74.7,67.7,18.01,North,0,0.0,0.0,79,0.00,,SHRA,0.00,VWS V14.01,2013-11-09 08:12:00,
2013-11-09 04:17:00,74.7,67.7,18.01,North,0,0.0,0.0,79,0.00,,SHRA,0.00,VWS V14.01,2013-11-09 08:17:00,
2013-11-09 04:22:00,74.5,67.6,18.01,North,0,0.0,0.0,79,0.00,,SHRA,0.00,VWS V14.01,2013-11-09 08:22:00,
2013-11-09 04:27:00,74.5,67.6,18.01,North,0,0.0,0.0,79,0.00,,SHRA,0.00,VWS V14.01,2013-11-09 08:27:00,
2013-11-09 04:32:00,74.7,67.7,18.01,North,0,0.0,0.0,79,0.00,,SHRA,0.00,VWS V14.01,2013-11-09 08:32:00,
2013-11-09 04:37:00,74.7,67.7,18.01,North,0,0.0,0.0,79,0.00,,SHRA,0.00,VWS V14.01,2013-11-09 08:37:00,
2013-11-09 04:42:00,74.7,67.7,18.01,North,0,0.0,0.0,79,0.00,,SHRA,0.00,VWS V14.01,2013-11-09 08:42:00,
2013-11-09 04:47:00,74.5,67.6,18.01,North,0,0.0,0.0,79,0.00,,SHRA,0.00,VWS V14.01,2013-11-09 08:47:00,
2013-11-09 04:52:00,74.3,67.4,18.01,North,0,0.0,0.0,79,0.00,,SHRA,0.00,VWS V14.01,2013-11-09 08:52:00,
2013-11-09 04:57:00,74.1,67.2,18.01,North,0,0.0,0.0,79,0.00,,SHRA,0.00,VWS V14.01,2013-11-09 08:57:00,
2013-11-09 05:02:00,74.1,67.6,18.01,North,0,0.0,0.0,80,0.00,,SHRA,0.00,VWS V14.01,2013-11-09 09:02:00,
2013-11-09 05:07:00,74.3,67.7,18.01,North,0,0.0,0.0,80,0.00,,SHRA,0.00,VWS V14.01,2013-11-09 09:07:00,
2013-11-09 05:12:00,74.3,67.7,18.01,North,0,0.0,0.0,80,0.00,,SHRA,0.00,VWS V14.01,2013-11-09 09:12:00,
2013-11-09 05:17:00,74.3,67.7,18.01,North,0,0.0,0.0,80,0.00,,SHRA,0.00,VWS V14.01,2013-11-09 09:17:00,
2013-11-09 05:22:00,74.3,67.7,18.01,North,0,0.0,0.0,80,0.00,,SHRA,0.00,VWS V14.01,2013-11-09 09:22:00,
2013-11-09 05:27:00,74.3,67.7,18.01,North,0,0.0,0.0,80,0.00,,SHRA,0.00,VWS V14.01,2013-11-09 09:27:00,
2013-11-09 05:32:00,74.3,67.7,18.01,North,0,0.0,0.0,80,0.00,,SHRA,0.00,VWS V14.01,2013-11-09 09:32:00,
2013-11-09 05:37:00,74.3,67.7,18.01,North,0,0.0,0.0,80,0.00,,SHRA,0.00,VWS V14.01,2013-11-09 09:37:00,
2013-11-09 05:42:00,74.3,67.7,18.01,North,0,0.0,0.0,80,0.00,,SHRA,0.00,VWS V14.01,2013-11-09 09:42:00,
2013-11-09 05:47:00,74.1,67.6,18.01,North,0,0.0,0.0,80,0.00,,SHRA,0.00,VWS V14.01,2013-11-09 09:47:00,
2013-11-09 05:52:00,73.9,67.4,18.01,North,0,0.0,0.0,80,0.00,,SHRA,0.00,VWS V14.01,2013-11-09 09:52:00,
2013-11-09 05:57:00,73.8,67.2,18.01,North,0,0.0,0.0,80,0.00,,SHRA,0.00,VWS V14.01,2013-11-09 09:57:00,
2013-11-09 06:02:00,73.8,67.6,18.01,North,0,0.0,0.0,81,0.00,,SHRA,0.00,VWS V14.01,2013-11-09 10:02:00,
2013-11-09 06:07:00,73.8,67.6,18.01,North,0,0.0,0.0,81,0.00,,SHRA,0.00,VWS V14.01,2013-11-09 10:07:00,
2013-11-09 06:12:00,73.8,67.6,18.01,North,0,0.0,0.0,81,0.00,,SHRA,0.00,VWS V14.01,2013-11-09 10:12:00,
2013-11-09 06:17:00,73.8,67.6,18.01,North,0,0.0,0.0,81,0.00,,SHRA,0.00,VWS V14.01,2013-11-09 10:17:00,
2013-11-09 06:22:00,73.8,67.6,18.01,North,0,0.0,0.0,81,0.00,,SHRA,0.00,VWS V14.01,2013-11-09 10:22:00,
2013-11-09 06:27:00,73.8,67.6,18.01,North,0,0.0,0.0,81,0.00,,SHRA,0.00,VWS V14.01,2013-11-09 10:27:00,
2013-11-09 06:32:00,73.8,67.6,18.01,North,0,0.0,0.0,81,0.00,,SHRA,0.00,VWS V14.01,2013-11-09 10:32:00,
2013-11-09 06:37:00,73.9,68.1,18.01,North,0,0.0,0.0,82,0.00,,SHRA,0.00,VWS V14.01,2013-11-09 10:37:00,
2013-11-09 06:42:00,73.4,67.6,18.01,North,0,0.0,0.0,82,0.00,,SHRA,0.00,VWS V14.01,2013-11-09 10:42:00,
2013-11-09 06:47:00,73.6,67.8,18.01,North,0,0.0,0.0,82,0.00,,SHRA,0.00,VWS V14.01,2013-11-09 10:47:00,
2013-11-09 06:52:00,73.8,67.9,18.01,North,0,0.0,0.0,82,0.00,,SHRA,0.00,VWS V14.01,2013-11-09 10:52:00,
2013-11-09 06:57:00,73.8,68.3,18.01,North,0,0.0,0.0,83,0.00,,SHRA,0.00,VWS V14.01,2013-11-09 10:57:00,
2013-11-09 07:02:00,73.8,68.3,18.01,North,0,0.0,0.0,83,0.00,,SHRA,0.00,VWS V14.01,2013-11-09 11:02:00,
2013-11-09 07:07:00,73.9,68.5,18.01,North,0,0.0,0.0,83,0.00,,SHRA,0.00,VWS V14.01,2013-11-09 11:07:00,
2013-11-09 07:12:00,74.1,68.6,18.01,North,0,0.0,0.0,83,0.00,,SHRA,0.00,VWS V14.01,2013-11-09 11:12:00,
2013-11-09 07:17:00,74.7,69.5,18.01,North,0,0.0,0.0,84,0.00,,SHRA,0.00,VWS V14.01,2013-11-09 11:17:00,
2013-11-09 07:22:00,75.0,69.9,18.01,North,0,0.0,0.0,84,0.00,,SHRA,0.00,VWS V14.01,2013-11-09 11:22:00,
2013-11-09 07:27:00,75.2,69.7,18.01,North,0,0.0,0.0,83,0.00,,SHRA,0.00,VWS V14.01,2013-11-09 11:27:00,
2013-11-09 07:32:00,75.6,70.4,18.01,North,0,0.0,0.0,84,0.00,,SHRA,0.00,VWS V14.01,2013-11-09 11:32:00,
2013-11-09 07:37:00,75.9,70.7,18.01,North,0,0.0,0.0,84,0.00,,SHRA,0.00,VWS V14.01,2013-11-09 11:37:00,
2013-11-09 07:42:00,76.3,71.1,18.01,North,0,0.0,0.0,84,0.00,,SHRA,0.00,VWS V14.01,2013-11-09 11:42:00,
2013-11-09 07:47:00,76.6,71.1,18.01,North,0,0.0,0.0,83,0.00,,SHRA,0.00,VWS V14.01,2013-11-09 11:47:00,
2013-11-09 07:52:00,77.0,71.4,18.01,North,0,0.0,0.0,83,0.00,,SHRA,0.00,VWS V14.01,2013-11-09 11:52:00,
2013-11-09 07:57:00,77.4,71.4,18.01,North,0,0.0,0.0,82,0.00,,SHRA,0.00,VWS V14.01,2013-11-09 11:57:00,
2013-11-09 08:02:00,77.7,71.8,18.01,North,0,0.0,0.0,82,0.00,,SHRA,0.00,VWS V14.01,2013-11-09 12:02:00,
2013-11-09 08:07:00,78.1,71.8,18.01,North,0,0.0,0.0,81,0.00,,SHRA,0.00,VWS V14.01,2013-11-09 12:07:00,
2013-11-09 08:12:00,78.4,72.1,18.01,North,0,0.0,0.0,81,0.00,,SHRA,0.00,VWS V14.01,2013-11-09 12:12:00,
2013-11-09 08:17:00,78.8,71.7,18.01,North,0,0.0,0.0,79,0.00,,SHRA,0.00,VWS V14.01,2013-11-09 12:17:00,
2013-11-09 08:22:00,79.2,71.7,18.01,North,0,0.0,0.0,78,0.00,,SHRA,0.00,VWS V14.01,2013-11-09 12:22:00,
2013-11-09 08:27:00,79.5,72.1,18.01,North,0,0.0,0.0,78,0.00,,SHRA,0.00,VWS V14.01,2013-11-09 12:27:00,
2013-11-09 08:32:00,80.1,72.2,18.01,North,0,0.0,0.0,77,0.00,,SHRA,0.00,VWS V14.01,2013-11-09 12:32:00,
2013-11-09 08:37:00,80.2,70.0,18.01,North,0,0.0,0.0,71,0.00,,SHRA,0.00,VWS V14.01,2013-11-09 12:37:00,
2013-11-09 08:42:00,80.6,70.3,18.01,North,0,0.0,0.0,71,0.00,,SHRA,0.00,VWS V14.01,2013-11-09 12:42:00,
2013-11-09 08:47:00,80.6,69.9,18.01,North,0,0.0,0.0,70,0.00,,SHRA,0.00,VWS V14.01,2013-11-09 12:47:00,
2013-11-09 08:52:00,81.1,68.3,18.01,North,0,0.0,0.0,65,0.00,,SHRA,0.00,VWS V14.01,2013-11-09 12:52:00,
2013-11-09 08:57:00,81.3,66.1,18.01,North,0,0.0,0.0,60,0.00,,SHRA,0.00,VWS V14.01,2013-11-09 12:57:00,
2013-11-09 09:02:00,81.5,62.2,18.01,North,0,0.0,0.0,52,0.00,,SHRA,0.00,VWS V14.01,2013-11-09 13:02:00,
2013-11-09 09:07:00,82.2,62.9,18.01,North,0,0.0,0.0,52,0.00,,SHRA,0.00,VWS V14.01,2013-11-09 13:07:00,
2013-11-09 09:12:00,82.6,62.1,18.01,North,0,0.0,0.0,50,0.00,,SHRA,0.00,VWS V14.01,2013-11-09 13:12:00,
2013-11-09 09:17:00,82.9,61.2,18.01,North,0,0.0,0.0,48,0.00,,SHRA,0.00,VWS V14.01,2013-11-09 13:17:00,
2013-11-09 09:22:00,83.3,61.6,18.01,North,0,0.0,0.0,48,0.00,,SHRA,0.00,VWS V14.01,2013-11-09 13:22:00,
2013-11-09 09:27:00,83.5,61.2,18.01,North,0,0.0,0.0,47,0.00,,SHRA,0.00,VWS V14.01,2013-11-09 13:27:00,
2013-11-09 09:32:00,83.8,60.9,18.01,North,0,0.0,0.0,46,0.00,,SHRA,0.00,VWS V14.01,2013-11-09 13:32:00,
2013-11-09 09:37:00,84.2,60.6,18.01,North,0,0.0,0.0,45,0.00,,SHRA,0.00,VWS V14.01,2013-11-09 13:37:00,
2013-11-09 09:42:00,84.4,60.7,18.01,North,0,0.0,0.0,45,0.00,,SHRA,0.00,VWS V14.01,2013-11-09 13:42:00,
2013-11-09 09:47:00,85.1,60.8,18.01,North,0,0.0,0.0,44,0.00,,SHRA,0.00,VWS V14.01,2013-11-09 13:47:00,
2013-11-09 09:52:00,85.5,60.4,18.01,North,0,0.0,0.0,43,0.00,,SHRA,0.00,VWS V14.01,2013-11-09 13:52:00,
2013-11-09 09:57:00,85.8,60.8,18.01,North,0,0.0,0.0,43,0.00,,SHRA,0.00,VWS V14.01,2013-11-09 13:57:00,
2013-11-09 10:02:00,86.4,59.9,18.01,North,0,0.0,0.0,41,0.00,,SHRA,0.00,VWS V14.01,2013-11-09 14:02:00,
2013-11-09 10:07:00,86.0,58.9,18.01,North,0,0.0,0.0,40,0.00,,SHRA,0.00,VWS V14.01,2013-11-09 14:07:00,
2013-11-09 10:13:00,86.2,59.0,18.01,North,0,0.0,0.0,40,0.00,,SHRA,0.00,VWS V14.01,2013-11-09 14:13:00,
2013-11-09 10:18:00,86.7,59.5,18.01,North,0,0.0,0.0,40,0.00,,SHRA,0.00,VWS V14.01,2013-11-09 14:18:00,
2013-11-09 10:23:00,86.9,55.2,18.01,North,0,0.0,0.0,34,0.00,,SHRA,0.00,VWS V14.01,2013-11-09 14:23:00,
2013-11-09 10:28:00,87.3,53.0,18.01,North,0,0.0,0.0,31,0.00,,SHRA,0.00,VWS V14.01,2013-11-09 14:28:00,
2013-11-09 10:33:00,87.6,52.4,18.01,North,0,0.0,0.0,30,0.00,,SHRA,0.00,VWS V14.01,2013-11-09 14:33:00,
2013-11-09 10:38:00,88.0,51.8,18.01,North,0,0.0,0.0,29,0.00,,SHRA,0.00,VWS V14.01,2013-11-09 14:38:00,
2013-11-09 10:43:00,88.0,50.8,18.01,North,0,0.0,0.0,28,0.00,,SHRA,0.00,VWS V14.01,2013-11-09 14:43:00,
2013-11-09 10:48:00,88.2,51.0,18.01,North,0,0.0,0.0,28,0.00,,SHRA,0.00,VWS V14.01,2013-11-09 14:48:00,
2013-11-09 10:53:00,88.3,49.1,18.01,North,0,0.0,0.0,26,0.00,,SHRA,0.00,VWS V14.01,2013-11-09 14:53:00,
2013-11-09 10:58:00,88.7,48.4,18.01,North,0,0.0,0.0,25,0.00,,SHRA,0.00,VWS V14.01,2013-11-09 14:58:00,
2013-11-09 11:03:00,88.5,47.2,18.01,North,0,0.0,0.0,24,0.00,,SHRA,0.00,VWS V14.01,2013-11-09 15:03:00,
2013-11-09 11:08:00,88.3,50.2,18.01,North,0,0.0,0.0,27,0.00,,SHRA,0.00,VWS V14.01,2013-11-09 15:08:00,
2013-11-09 11:13:00,88.0,50.8,18.01,North,0,0.0,0.0,28,0.00,,SHRA,0.00,VWS V14.01,2013-11-09 15:13:00,
2013-11-09 11:18:00,87.6,48.5,18.01,North,0,0.0,0.0,26,0.00,,SHRA,0.00,VWS V14.01,2013-11-09 15:18:00,
2013-11-09 11:23:00,87.3,51.2,18.01,North,0,0.0,0.0,29,0.00,,SHRA,0.00,VWS V14.01,2013-11-09 15:23:00,
2013-11-09 11:28:00,87.6,51.5,18.01,North,0,0.0,0.0,29,0.00,,SHRA,0.00,VWS V14.01,2013-11-09 15:28:00,
2013-11-09 11:33:00,87.6,51.5,18.01,North,0,0.0,0.0,29,0.00,,SHRA,0.00,VWS V14.01,2013-11-09 15:33:00,
2013-11-09 11:38:00,87.4,51.3,18.01,North,0,0.0,0.0,29,0.00,,SHRA,0.00,VWS V14.01,2013-11-09 15:38:00,
2013-11-09 11:43:00,87.1,51.9,18.01,North,0,0.0,0.0,30,0.00,,SHRA,0.00,VWS V14.01,2013-11-09 15:43:00,
2013-11-09 11:48:00,87.1,51.9,18.01,North,0,0.0,0.0,30,0.00,,SHRA,0.00,VWS V14.01,2013-11-09 15:48:00,
2013-11-09 11:53:00,87.4,51.3,18.01,North,0,0.0,0.0,29,0.00,,SHRA,0.00,VWS V14.01,2013-11-09 15:53:00,
2013-11-09 11:58:00,87.6,51.5,18.01,North,0,0.0,0.0,29,0.00,,SHRA,0.00,VWS V14.01,2013-11-09 15:58:00,
2013-11-09 12:03:00,88.0,51.8,18.01,North,0,0.0,0.0,29,0.00,,SHRA,0.00,VWS V14.01,2013-11-09 16:03:00,
2013-11-09 12:08:00,87.6,51.5,18.01,North,0,0.0,0.0,29,0.00,,SHRA,0.00,VWS V14.01,2013-11-09 16:08:00,
2013-11-09 12:13:00,87.3,52.1,18.01,North,0,0.0,0.0,30,0.00,,SHRA,0.00,VWS V14.01,2013-11-09 16:13:00,
2013-11-09 12:18:00,86.9,51.8,18.01,North,0,0.0,0.0,30,0.00,,SHRA,0.00,VWS V14.01,2013-11-09 16:18:00,
2013-11-09 12:23:00,86.5,52.3,18.01,North,0,0.0,0.0,31,0.00,,SHRA,0.00,VWS V14.01,2013-11-09 16:23:00,
2013-11-09 12:28:00,86.2,52.0,18.01,North,0,0.0,0.0,31,0.00,,SHRA,0.00,VWS V14.01,2013-11-09 16:28:00,
2013-11-09 12:33:00,85.6,51.6,18.01,North,0,0.0,0.0,31,0.00,,SHRA,0.00,VWS V14.01,2013-11-09 16:33:00,
2013-11-09 12:38:00,85.3,50.4,18.01,North,0,0.0,0.0,30,0.00,,SHRA,0.00,VWS V14.01,2013-11-09 16:38:00,
2013-11-09 12:43:00,85.1,51.1,18.01,North,0,0.0,0.0,31,0.00,,SHRA,0.00,VWS V14.01,2013-11-09 16:43:00,
2013-11-09 12:48:00,85.1,51.1,18.01,North,0,0.0,0.0,31,0.00,,SHRA,0.00,VWS V14.01,2013-11-09 16:48:00,
2013-11-09 12:53:00,85.3,52.1,18.01,North,0,0.0,0.0,32,0.00,,SHRA,0.00,VWS V14.01,2013-11-09 16:53:00,
2013-11-09 12:58:00,85.8,50.8,18.01,North,0,0.0,0.0,30,0.00,,SHRA,0.00,VWS V14.01,2013-11-09 16:58:00,
2013-11-09 13:03:00,86.4,50.4,18.01,North,0,0.0,0.0,29,0.00,,SHRA,0.00,VWS V14.01,2013-11-09 17:03:00,
2013-11-09 13:08:00,87.1,51.0,18.01,North,0,0.0,0.0,29,0.00,,SHRA,0.00,VWS V14.01,2013-11-09 17:08:00,
2013-11-09 13:13:00,88.3,49.1,18.01,North,0,0.0,0.0,26,0.00,,SHRA,0.00,VWS V14.01,2013-11-09 17:13:00,
2013-11-09 13:18:00,89.4,46.8,18.01,North,0,0.0,0.0,23,0.00,,SHRA,0.00,VWS V14.01,2013-11-09 17:18:00,
2013-11-09 13:24:00,90.7,45.4,18.01,North,0,0.0,0.0,21,0.00,,SHRA,0.00,VWS V14.01,2013-11-09 17:24:00,
2013-11-09 13:29:00,91.4,44.7,18.01,North,0,0.0,0.0,20,0.00,,SHRA,0.00,VWS V14.01,2013-11-09 17:29:00,
2013-11-09 13:34:00,91.6,43.5,18.01,North,0,0.0,0.0,19,0.00,,SHRA,0.00,VWS V14.01,2013-11-09 17:34:00,
2013-11-09 13:39:00,91.0,43.1,18.01,North,0,0.0,0.0,19,0.00,,SHRA,0.00,VWS V14.01,2013-11-09 17:39:00,
2013-11-09 13:44:00,91.2,41.8,18.01,North,0,0.0,0.0,18,0.00,,SHRA,0.00,VWS V14.01,2013-11-09 17:44:00,
2013-11-09 13:50:00,91.6,43.5,18.01,North,0,0.0,0.0,19,0.00,,SHRA,0.00,VWS V14.01,2013-11-09 17:50:00,
2013-11-09 13:55:00,92.5,42.9,18.01,North,0,0.0,0.0,18,0.00,,SHRA,0.00,VWS V14.01,2013-11-09 17:55:00,
2013-11-09 14:00:00,92.3,41.2,18.01,North,0,0.0,0.0,17,0.00,,SCT055,0.00,VWS V14.01,2013-11-09 18:00:00,
2013-11-09 14:05:00,91.9,42.4,18.01,North,0,0.0,0.0,18,0.00,,SCT055,0.00,VWS V14.01,2013-11-09 18:05:00,
2013-11-09 14:10:00,91.8,40.8,18.01,North,0,0.0,0.0,17,0.00,,SCT055,0.00,VWS V14.01,2013-11-09 18:10:00,
2013-11-09 14:15:00,92.1,42.6,18.01,North,0,0.0,0.0,18,0.00,,SCT055,0.00,VWS V14.01,2013-11-09 18:15:00,
2013-11-09 14:20:00,92.5,42.9,18.01,North,0,0.0,0.0,18,0.00,,SCT055,0.00,VWS V14.01,2013-11-09 18:20:00,
2013-11-09 14:25:00,92.3,42.7,18.01,North,0,0.0,0.0,18,0.00,,SCT055,0.00,VWS V14.01,2013-11-09 18:25:00,
2013-11-09 18:45:00,83.7,53.9,18.01,North,0,0.0,0.0,36,0.00,,SCT055,0.00,VWS V14.01,2013-11-09 22:45:00,
2013-11-09 18:50:00,83.5,53.8,18.01,North,0,0.0,0.0,36,0.00,,SCT055,0.00,VWS V14.01,2013-11-09 22:50:00,
2013-11-09 18:55:00,83.3,54.3,18.01,North,0,0.0,0.0,37,0.00,,SCT055,0.00,VWS V14.01,2013-11-09 22:55:00,
2013-11-09 19:00:00,83.3,55.1,18.01,North,0,0.0,0.0,38,0.00,,SCT055,0.00,VWS V14.01,2013-11-09 23:00:00,
2013-11-09 19:05:00,83.1,55.6,18.01,North,0,0.0,0.0,39,0.00,,SCT055,0.00,VWS V14.01,2013-11-09 23:05:00,
2013-11-09 19:10:00,82.9,55.5,18.01,North,0,0.0,0.0,39,0.00,,SCT055,0.00,VWS V14.01,2013-11-09 23:10:00,
2013-11-09 19:15:00,82.9,56.2,18.01,North,0,0.0,0.0,40,0.00,,SCT055,0.00,VWS V14.01,2013-11-09 23:15:00,
2013-11-09 19:20:00,82.8,56.0,18.01,North,0,0.0,0.0,40,0.00,,SCT055,0.00,VWS V14.01,2013-11-09 23:20:00,
2013-11-09 19:25:00,82.8,56.0,18.01,North,0,0.0,0.0,40,0.00,,SCT055,0.00,VWS V14.01,2013-11-09 23:25:00,
2013-11-09 19:30:00,82.6,55.8,18.01,North,0,0.0,0.0,40,0.00,,SCT055,0.00,VWS V14.01,2013-11-09 23:30:00,
2013-11-09 19:35:00,82.6,56.5,18.01,North,0,0.0,0.0,41,0.00,,SCT055,0.00,VWS V14.01,2013-11-09 23:35:00,
2013-11-09 19:40:00,82.4,57.0,18.01,North,0,0.0,0.0,42,0.00,,SCT055,0.00,VWS V14.01,2013-11-09 23:40:00,
2013-11-09 19:45:00,82.0,57.4,18.01,North,0,0.0,0.0,43,0.00,,SCT055,0.00,VWS V14.01,2013-11-09 23:45:00,
2013-11-09 19:50:00,81.7,58.3,18.01,North,0,0.0,0.0,45,0.00,,SCT055,0.00,VWS V14.01,2013-11-09 23:50:00,
2013-11-09 19:55:00,81.3,60.3,18.01,North,0,0.0,0.0,49,0.00,,SCT055,0.00,VWS V14.01,2013-11-09 23:55:00,
2013-11-09 20:00:00,81.1,60.8,18.01,North,0,0.0,0.0,50,0.00,,FEW022,0.00,VWS V14.01,2013-11-10 00:00:00,
2013-11-09 20:05:00,81.0,61.7,18.01,North,0,0.0,0.0,52,0.00,,FEW022,0.00,VWS V14.01,2013-11-10 00:05:00,
2013-11-09 20:10:00,81.0,62.2,18.01,North,0,0.0,0.0,53,0.00,,FEW022,0.00,VWS V14.01,2013-11-10 00:10:00,
2013-11-09 20:15:00,80.8,62.6,18.01,North,0,0.0,0.0,54,0.00,,FEW022,0.00,VWS V14.01,2013-11-10 00:15:00,
2013-11-09 20:20:00,80.6,63.0,18.01,North,0,0.0,0.0,55,0.00,,FEW022,0.00,VWS V14.01,2013-11-10 00:20:00,
2013-11-09 20:25:00,80.4,63.3,18.01,North,0,0.0,0.0,56,0.00,,FEW022,0.00,VWS V14.01,2013-11-10 00:25:00,
2013-11-09 20:30:00,80.4,64.3,18.01,North,0,0.0,0.0,58,0.00,,FEW022,0.00,VWS V14.01,2013-11-10 00:30:00,
2013-11-09 20:35:00,80.2,64.6,18.01,North,0,0.0,0.0,59,0.00,,FEW022,0.00,VWS V14.01,2013-11-10 00:35:00,
2013-11-09 20:40:00,80.1,64.9,18.01,North,0,0.0,0.0,60,0.00,,FEW022,0.00,VWS V14.01,2013-11-10 00:40:00,
2013-11-09 20:45:00,79.9,64.8,18.01,North,0,0.0,0.0,60,0.00,,FEW022,0.00,VWS V14.01,2013-11-10 00:45:00,
2013-11-09 20:50:00,79.9,64.8,18.01,North,0,0.0,0.0,60,0.00,,FEW022,0.00,VWS V14.01,2013-11-10 00:50:00,
2013-11-09 20:55:00,79.9,65.2,18.01,North,0,0.0,0.0,61,0.00,,FEW022,0.00,VWS V14.01,2013-11-10 00:55:00,
2013-11-09 21:00:00,79.9,65.2,18.01,North,0,0.0,0.0,61,0.00,,FEW022,0.00,VWS V14.01,2013-11-10 01:00:00,
2013-11-09 21:05:00,79.9,65.7,18.01,North,0,0.0,0.0,62,0.00,,FEW022,0.00,VWS V14.01,2013-11-10 01:05:00,
2013-11-09 21:10:00,80.1,65.9,18.01,North,0,0.0,0.0,62,0.00,,FEW022,0.00,VWS V14.01,2013-11-10 01:10:00,
2013-11-09 21:15:00,79.9,65.7,18.01,North,0,0.0,0.0,62,0.00,,FEW022,0.00,VWS V14.01,2013-11-10 01:15:00,
2013-11-09 21:20:00,79.5,65.4,18.01,North,0,0.0,0.0,62,0.00,,FEW022,0.00,VWS V14.01,2013-11-10 01:20:00,
2013-11-09 21:25:00,79.3,65.7,18.01,North,0,0.0,0.0,63,0.00,,FEW022,0.00,VWS V14.01,2013-11-10 01:25:00,
2013-11-09 21:30:00,79.3,66.1,18.01,North,0,0.0,0.0,64,0.00,,FEW022,0.00,VWS V14.01,2013-11-10 01:30:00,
2013-11-09 21:35:00,79.3,66.1,18.01,North,0,0.0,0.0,64,0.00,,FEW022,0.00,VWS V14.01,2013-11-10 01:35:00,
2013-11-09 21:40:00,79.3,66.1,18.01,North,0,0.0,0.0,64,0.00,,FEW022,0.00,VWS V14.01,2013-11-10 01:40:00,
2013-11-09 21:45:00,79.5,66.3,18.01,North,0,0.0,0.0,64,0.00,,FEW022,0.00,VWS V14.01,2013-11-10 01:45:00,
2013-11-09 21:50:00,79.3,66.1,18.01,North,0,0.0,0.0,64,0.00,,FEW022,0.00,VWS V14.01,2013-11-10 01:50:00,
2013-11-09 21:55:00,79.2,65.9,18.01,North,0,0.0,0.0,64,0.00,,FEW022,0.00,VWS V14.01,2013-11-10 01:55:00,
2013-11-09 22:00:00,79.2,66.4,18.01,North,0,0.0,0.0,65,0.00,,SCT055,0.00,VWS V14.01,2013-11-10 02:00:00,
2013-11-09 22:05:00,79.0,66.2,18.01,North,0,0.0,0.0,65,0.00,,SCT055,0.00,VWS V14.01,2013-11-10 02:05:00,
2013-11-09 22:10:00,79.0,67.1,18.01,North,0,0.0,0.0,67,0.00,,SCT055,0.00,VWS V14.01,2013-11-10 02:10:00,
2013-11-09 22:15:00,79.0,67.1,18.01,North,0,0.0,0.0,67,0.00,,SCT055,0.00,VWS V14.01,2013-11-10 02:15:00,
2013-11-09 22:20:00,78.8,66.9,18.01,North,0,0.0,0.0,67,0.00,,SCT055,0.00,VWS V14.01,2013-11-10 02:20:00,
2013-11-09 22:25:00,78.8,67.4,18.01,North,0,0.0,0.0,68,0.00,,SCT055,0.00,VWS V14.01,2013-11-10 02:25:00,
2013-11-09 22:30:00,78.6,67.6,18.01,North,0,0.0,0.0,69,0.00,,SCT055,0.00,VWS V14.01,2013-11-10 02:30:00,
2013-11-09 22:35:00,78.4,67.4,18.01,North,0,0.0,0.0,69,0.00,,SCT055,0.00,VWS V14.01,2013-11-10 02:35:00,
2013-11-09 22:40:00,78.3,67.3,18.01,North,0,0.0,0.0,69,0.00,,SCT055,0.00,VWS V14.01,2013-11-10 02:40:00,
2013-11-09 22:45:00,78.3,67.3,18.01,North,0,0.0,0.0,69,0.00,,SCT055,0.00,VWS V14.01,2013-11-10 02:45:00,
2013-11-09 22:50:00,78.1,67.5,18.01,North,0,0.0,0.0,70,0.00,,SCT055,0.00,VWS V14.01,2013-11-10 02:50:00,
2013-11-09 22:55:00,77.9,67.3,18.01,North,0,0.0,0.0,70,0.00,,SCT055,0.00,VWS V14.01,2013-11-10 02:55:00,
2013-11-09 23:00:00,77.9,67.3,18.01,North,0,0.0,0.0,70,0.00,,SCT055,0.00,VWS V14.01,2013-11-10 03:00:00,
2013-11-09 23:05:00,77.9,67.3,18.01,North,0,0.0,0.0,70,0.00,,SCT055,0.00,VWS V14.01,2013-11-10 03:05:00,
2013-11-09 23:10:00,77.9,67.8,18.01,North,0,0.0,0.0,71,0.00,,SCT055,0.00,VWS V14.01,2013-11-10 03:10:00,
2013-11-09 23:15:00,77.9,67.8,18.01,North,0,0.0,0.0,71,0.00,,SCT055,0.00,VWS V14.01,2013-11-10 03:15:00,
2013-11-09 23:20:00,77.9,67.8,18.01,North,0,0.0,0.0,71,0.00,,SCT055,0.00,VWS V14.01,2013-11-10 03:20:00,
2013-11-09 23:25:00,77.5,67.4,18.01,North,0,0.0,0.0,71,0.00,,SCT055,0.00,VWS V14.01,2013-11-10 03:25:00,
2013-11-09 23:30:00,77.5,67.8,18.01,North,0,0.0,0.0,72,0.00,,SCT055,0.00,VWS V14.01,2013-11-10 03:30:00,
2013-11-09 23:35:00,77.5,67.8,18.01,North,0,0.0,0.0,72,0.00,,SCT055,0.00,VWS V14.01,2013-11-10 03:35:00,
2013-11-09 23:40:00,77.7,68.0,18.01,North,0,0.0,0.0,72,0.00,,SCT055,0.00,VWS V14.01,2013-11-10 03:40:00,
2013-11-09 23:45:00,77.9,68.2,18.01,North,0,0.0,0.0,72,0.00,,SCT055,0.00,VWS V14.01,2013-11-10 03:45:00,
2013-11-09 23:50:00,77.9,68.2,18.01,North,0,0.0,0.0,72,0.00,,SCT055,0.00,VWS V14.01,2013-11-10 03:50:00,
2013-11-09 23:55:00,77.7,68.0,18.01,North,0,0.0,0.0,72,0.00,,SCT055,0.00,VWS V14.01,2013-11-10 03:55:00,